#timestamp,LO_Frequency,Hit 
1499842815.3,286047035.9,N
1499842835.2,286047033.9,N
1499842855.0,286047032.9,N
1499842855.9,286047032.9,N
1499842875.8,286047027.2,N
1499842895.6,286047024.1,N
1499842915.4,286047022.9,N
1499842935.3,286047021.4,N
1499842955.1,286047022.0,N
1499842975.8,286047017.9,N
1499842995.7,286047016.8,N
1499843015.5,286047012.8,N
1499843035.4,286047013.6,N
1499843055.2,286047010.2,N
1499843075.0,286047006.4,N
1499843075.9,286047006.4,N
1499843095.8,286047005.4,N
1499843115.6,286047003.9,N
1499843135.4,286047002.0,N
1499843155.3,286047000.7,N
1499843175.1,286046997.4,N
1499843195.9,286046995.3,N
1499843215.7,286046993.6,N
1499843235.5,286046992.5,N
1499843255.4,286046988.5,N
1499843275.2,286046985.8,N
1499843295.0,286046983.9,N
1499843295.9,286046983.9,N
1499843315.8,286046984.6,N
1499843335.6,286046980.9,N
1499843355.5,286046980.0,N
1499843375.3,286046975.8,N
1499843395.1,286046974.4,N
1499843415.9,286046972.8,N
1499843435.7,286046971.8,N
1499843455.5,286046969.6,N
1499843475.4,286046969.9,N
1499843495.2,286046969.1,N
1499843515.1,286046966.4,N
1499843516.0,286046966.4,N
1499843535.8,286046965.0,N
1499843555.6,286046965.1,N
1499843575.5,286046961.4,N
1499843595.3,286046960.4,N
1499843615.2,286046959.0,N
1499843635.9,286046958.7,N
1499843655.7,286046958.3,N
1499843675.6,286046959.4,N
1499843695.4,286046958.1,N
1499843715.2,286046960.7,N
1499843735.1,286046957.7,N
1499843736.0,286046957.7,N
1499843755.8,286046955.8,N
1499843775.7,286046954.5,N
1499843795.5,286046954.7,N
1499843815.3,286046952.0,N
1499843835.2,286046950.2,N
1499843855.0,286046950.2,N
1499843855.9,286046950.2,N
1499843875.7,286046952.6,N
1499843895.6,286046954.0,N
1499843915.4,286046952.1,N
1499843935.3,286046950.4,N
1499843955.1,286046951.5,N
1499843956.0,286046951.5,N
1499843975.8,286046949.6,N
1499843995.7,286046948.3,N
1499844015.5,286046945.8,N
1499844035.3,286046947.9,N
1499844055.2,286046946.3,N
1499844075.0,286046945.5,N
1499844075.9,286046945.5,N
1499844095.8,286046943.8,N
1499844115.6,286046944.6,N
1499844135.4,286046942.3,N
1499844155.3,286046942.7,N
1499844175.1,286046942.6,N
1499844195.8,286046946.7,N
1499844215.7,286046944.9,N
1499844235.5,286046942.5,N
1499844255.4,286046945.2,N
1499844275.2,286046942.7,N
1499844295.0,286046942.4,N
1499844295.9,286046942.4,N
1499844315.8,286046942.8,N
1499844335.6,286046943.2,N
1499844355.4,286046941.1,N
1499844375.3,286046937.3,N
1499844395.1,286046934.5,N
1499844415.9,286046932.8,N
1499844435.7,286046931.8,N
1499844455.5,286046929.9,N
1499844475.4,286046930.6,N
1499844495.2,286046930.3,N
1499844515.0,286046928.1,N
1499844515.9,286046928.1,N
1499844535.8,286046926.1,N
1499844555.6,286046926.3,N
1499844575.5,286046929.0,N
1499844595.3,286046926.7,N
1499844615.1,286046926.7,N
1499844635.9,286046925.4,N
1499844655.7,286046925.3,N
1499844675.5,286046923.1,N
1499844695.4,286046921.9,N
1499844715.2,286046921.5,N
1499844735.1,286046919.7,N
1499844736.0,286046919.7,N
1499844755.8,286046922.2,N
1499844775.6,286046921.0,N
1499844795.5,286046922.4,N
1499844815.3,286046921.3,N
1499844835.1,286046922.1,N
1499844855.9,286046919.5,N
1499844875.7,286046916.6,N
1499844895.6,286046916.5,N
1499844915.4,286046917.1,N
1499844935.2,286046916.9,N
1499844955.1,286046916.7,N
1499844956.0,286046916.7,N
1499844975.8,286046917.4,N
1499844995.6,286046917.0,N
1499845015.5,286046918.0,N
1499845035.3,286046915.7,N
1499845055.2,286046914.9,N
1499845075.9,286046913.7,N
1499845095.7,286046914.5,N
1499845115.6,286046916.3,N
1499845135.4,286046913.7,N
1499845155.2,286046911.7,N
1499845175.1,286046913.7,N
1499845176.0,286046913.7,N
1499845195.8,286046916.1,N
1499845215.7,286046915.2,N
1499845235.5,286046913.8,N
1499845255.3,286046914.4,N
1499845275.2,286046911.3,N
1499845295.0,286046911.5,N
1499845295.9,286046911.5,N
1499845315.8,286046909.2,N
1499845335.6,286046905.3,N
1499845355.4,286046904.5,N
1499845375.3,286046905.1,N
1499845395.1,286046902.3,N
1499845396.0,286046902.3,N
1499845415.8,286046901.3,N
1499845435.7,286046900.9,N
1499845455.5,286046905.1,N
1499845475.3,286046903.1,N
1499845495.2,286046899.3,N
1499845515.0,286046899.0,N
1499845515.9,286046899.0,N
1499845535.8,286046900.0,N
1499845555.6,286046899.0,N
1499845575.4,286046901.1,N
1499845595.3,286046901.8,N
1499845615.1,286046903.1,N
1499845635.9,286046903.6,N
1499845655.7,286046899.2,N
1499845675.5,286046897.6,N
1499845695.4,286046896.5,N
1499845745.2,286046895.0,Y
1499845755.2,286046943.7,N
1499845775.9,286047002.5,N
1499845795.7,286046999.7,N
1499845815.6,286046999.2,N
1499845835.4,286046995.4,N
1499845855.2,286046994.2,N
1499845875.1,286046993.3,N
1499845876.0,286046993.3,N
1499845895.8,286046994.8,N
1499845915.7,286046994.7,N
1499845935.5,286046996.2,N
1499845955.3,286046993.4,N
1499845975.2,286046994.0,N
1499845995.9,286046994.0,N
1499846015.7,286046993.8,N
1499846035.6,286046993.1,N
1499846055.4,286046990.7,N
1499846075.2,286046992.1,N
1499846095.1,286046994.1,N
1499846096.0,286046994.1,N
1499846115.8,286046994.2,N
1499846135.7,286046994.3,N
1499846155.5,286046990.3,N
1499846175.3,286046992.3,N
1499846195.2,286046992.8,N
1499846215.0,286046991.0,N
1499846215.9,286046991.0,N
1499846235.8,286046989.1,N
1499846255.6,286046987.3,N
1499846275.4,286046989.3,N
1499846295.3,286046992.8,N
1499846315.1,286046994.8,N
1499846335.8,286046992.2,N
1499846355.7,286046993.7,N
1499846375.5,286046992.1,N
1499846395.4,286046992.3,N
